Year,Month,Day,Hour,Minute,Value (Times are PST for temperature in C)
2009,05,23,00,00,12.00
2009,05,23,00,01,12.00
2009,05,23,00,02,12.00
2009,05,23,00,03,12.00
2009,05,23,00,04,12.00
2009,05,23,00,05,12.00
2009,05,23,00,06,12.10
2009,05,23,00,07,12.10
2009,05,23,00,08,12.10
2009,05,23,00,09,12.10
2009,05,23,00,10,12.10
2009,05,23,00,11,12.10
2009,05,23,00,12,12.00
2009,05,23,00,13,12.00
2009,05,23,00,14,12.00
2009,05,23,00,15,11.90
2009,05,23,00,16,11.90
2009,05,23,00,17,11.90
2009,05,23,00,18,11.90
2009,05,23,00,19,11.90
2009,05,23,00,20,11.90
2009,05,23,00,21,11.90
2009,05,23,00,22,11.90
2009,05,23,00,23,11.80
2009,05,23,00,24,11.80
2009,05,23,00,25,11.80
2009,05,23,00,26,11.70
2009,05,23,00,27,11.70
2009,05,23,00,28,11.70
2009,05,23,00,29,11.70
2009,05,23,00,30,11.70
2009,05,23,00,31,11.70
2009,05,23,00,32,11.70
2009,05,23,00,33,11.70
2009,05,23,00,34,11.60
2009,05,23,00,35,11.60
2009,05,23,00,36,11.60
2009,05,23,00,37,11.50
2009,05,23,00,38,11.50
2009,05,23,00,39,11.50
2009,05,23,00,40,11.50
2009,05,23,00,41,11.40
2009,05,23,00,42,11.40
2009,05,23,00,43,11.30
2009,05,23,00,44,11.30
2009,05,23,00,45,11.20
2009,05,23,00,46,11.20
2009,05,23,00,47,11.20
2009,05,23,00,48,11.10
2009,05,23,00,49,11.10
2009,05,23,00,50,11.10
2009,05,23,00,51,11.10
2009,05,23,00,52,11.10
2009,05,23,00,53,11.00
2009,05,23,00,54,11.00
2009,05,23,00,55,11.00
2009,05,23,00,56,10.90
2009,05,23,00,57,10.90
2009,05,23,00,58,10.90
2009,05,23,00,59,10.90
2009,05,23,01,00,10.90
2009,05,23,01,01,10.80
2009,05,23,01,02,10.80
2009,05,23,01,03,10.70
2009,05,23,01,04,10.70
2009,05,23,01,05,10.60
2009,05,23,01,06,10.60
2009,05,23,01,07,10.60
2009,05,23,01,08,10.50
2009,05,23,01,09,10.50
2009,05,23,01,10,10.50
2009,05,23,01,11,10.40
2009,05,23,01,12,10.40
2009,05,23,01,13,10.40
2009,05,23,01,14,10.40
2009,05,23,01,15,10.40
2009,05,23,01,16,10.30
2009,05,23,01,17,10.30
2009,05,23,01,18,10.30
2009,05,23,01,19,10.30
2009,05,23,01,20,10.30
2009,05,23,01,21,10.30
2009,05,23,01,22,10.30
2009,05,23,01,23,10.20
2009,05,23,01,24,10.20
2009,05,23,01,25,10.20
2009,05,23,01,26,10.20
2009,05,23,01,27,10.20
2009,05,23,01,28,10.20
2009,05,23,01,29,10.20
2009,05,23,01,30,10.20
2009,05,23,01,31,10.20
2009,05,23,01,32,10.20
2009,05,23,01,33,10.10
2009,05,23,01,34,10.10
2009,05,23,01,35,10.10
2009,05,23,01,36,10.00
2009,05,23,01,37,10.00
2009,05,23,01,38,10.00
2009,05,23,01,39,9.90
2009,05,23,01,40,9.90
2009,05,23,01,41,9.90
2009,05,23,01,42,9.80
2009,05,23,01,43,9.80
2009,05,23,01,44,9.70
2009,05,23,01,45,9.70
2009,05,23,01,46,9.70
2009,05,23,01,47,9.70
2009,05,23,01,48,9.60
2009,05,23,01,49,9.60
2009,05,23,01,50,9.60
2009,05,23,01,51,9.60
2009,05,23,01,52,9.60
2009,05,23,01,53,9.50
2009,05,23,01,54,9.50
2009,05,23,01,55,9.50
2009,05,23,01,56,9.40
2009,05,23,01,57,9.40
2009,05,23,01,58,9.40
2009,05,23,01,59,9.40
2009,05,23,02,00,9.40
2009,05,23,02,01,9.40
2009,05,23,02,02,9.40
2009,05,23,02,03,9.30
2009,05,23,02,04,9.30
2009,05,23,02,05,9.30
2009,05,23,02,06,9.30
2009,05,23,02,07,9.20
2009,05,23,02,08,9.20
2009,05,23,02,09,9.10
2009,05,23,02,10,9.10
2009,05,23,02,11,9.10
2009,05,23,02,12,9.10
2009,05,23,02,13,9.10
2009,05,23,02,14,9.10
2009,05,23,02,15,9.00
2009,05,23,02,16,9.00
2009,05,23,02,17,9.00
2009,05,23,02,18,8.90
2009,05,23,02,19,8.90
2009,05,23,02,20,8.90
2009,05,23,02,21,8.80
2009,05,23,02,22,8.80
2009,05,23,02,23,8.80
2009,05,23,02,24,8.70
2009,05,23,02,25,8.70
2009,05,23,02,26,8.70
2009,05,23,02,27,8.70
2009,05,23,02,28,8.70
2009,05,23,02,29,8.60
2009,05,23,02,30,8.60
2009,05,23,02,31,8.60
2009,05,23,02,32,8.60
2009,05,23,02,33,8.60
2009,05,23,02,34,8.60
2009,05,23,02,35,8.50
2009,05,23,02,36,8.50
2009,05,23,02,37,8.50
2009,05,23,02,38,8.50
2009,05,23,02,39,8.40
2009,05,23,02,40,8.40
2009,05,23,02,41,8.40
2009,05,23,02,42,8.40
2009,05,23,02,43,8.40
2009,05,23,02,44,8.40
2009,05,23,02,45,8.40
2009,05,23,02,46,8.40
2009,05,23,02,47,8.40
2009,05,23,02,48,8.40
2009,05,23,02,49,8.40
2009,05,23,02,50,8.30
2009,05,23,02,51,8.30
2009,05,23,02,52,8.30
2009,05,23,02,53,8.30
2009,05,23,02,54,8.30
2009,05,23,02,55,8.30
2009,05,23,02,56,8.30
2009,05,23,02,57,8.40
2009,05,23,02,58,8.40
2009,05,23,02,59,8.40
2009,05,23,03,00,8.40
2009,05,23,03,01,8.30
2009,05,23,03,02,8.30
2009,05,23,03,03,8.30
2009,05,23,03,04,8.30
2009,05,23,03,05,8.30
2009,05,23,03,06,8.30
2009,05,23,03,07,8.30
2009,05,23,03,08,8.30
2009,05,23,03,09,8.30
2009,05,23,03,10,8.30
2009,05,23,03,11,8.30
2009,05,23,03,12,8.30
2009,05,23,03,13,8.30
2009,05,23,03,14,8.30
2009,05,23,03,15,8.30
2009,05,23,03,16,8.40
2009,05,23,03,17,8.40
2009,05,23,03,18,8.40
2009,05,23,03,19,8.40
2009,05,23,03,20,8.40
2009,05,23,03,21,8.40
2009,05,23,03,22,8.40
2009,05,23,03,23,8.40
2009,05,23,03,24,8.40
2009,05,23,03,25,8.30
2009,05,23,03,26,8.30
2009,05,23,03,27,8.30
2009,05,23,03,28,8.30
2009,05,23,03,29,8.30
2009,05,23,03,30,8.30
2009,05,23,03,31,8.30
2009,05,23,03,32,8.30
2009,05,23,03,33,8.30
2009,05,23,03,34,8.30
2009,05,23,03,35,8.20
2009,05,23,03,36,8.20
2009,05,23,03,37,8.20
2009,05,23,03,38,8.10
2009,05,23,03,39,8.10
2009,05,23,03,40,8.00
2009,05,23,03,41,7.90
2009,05,23,03,42,7.90
2009,05,23,03,43,7.90
2009,05,23,03,44,7.90
2009,05,23,03,45,7.90
2009,05,23,03,46,7.90
2009,05,23,03,47,7.80
2009,05,23,03,48,7.80
2009,05,23,03,49,7.80
2009,05,23,03,50,7.80
2009,05,23,03,51,7.70
2009,05,23,03,52,7.70
2009,05,23,03,53,7.70
2009,05,23,03,54,7.70
2009,05,23,03,55,7.60
2009,05,23,03,56,7.60
2009,05,23,03,57,7.60
2009,05,23,03,58,7.50
2009,05,23,03,59,7.40
2009,05,23,04,00,7.40
2009,05,23,04,01,7.40
2009,05,23,04,02,7.40
2009,05,23,04,03,7.40
2009,05,23,04,04,7.30
2009,05,23,04,05,7.30
2009,05,23,04,06,7.30
2009,05,23,04,07,7.30
2009,05,23,04,08,7.30
2009,05,23,04,09,7.30
2009,05,23,04,10,7.30
2009,05,23,04,11,7.40
2009,05,23,04,12,7.40
2009,05,23,04,13,7.30
2009,05,23,04,14,7.30
2009,05,23,04,15,7.30
2009,05,23,04,16,7.30
2009,05,23,04,17,7.30
2009,05,23,04,18,7.30
2009,05,23,04,19,7.20
2009,05,23,04,20,7.20
2009,05,23,04,21,7.20
2009,05,23,04,22,7.20
2009,05,23,04,23,7.20
2009,05,23,04,24,7.20
2009,05,23,04,25,7.10
2009,05,23,04,26,7.10
2009,05,23,04,27,7.10
2009,05,23,04,28,7.10
2009,05,23,04,29,7.10
2009,05,23,04,30,7.00
2009,05,23,04,31,7.00
2009,05,23,04,32,7.00
2009,05,23,04,33,6.90
2009,05,23,04,34,6.90
2009,05,23,04,35,6.90
2009,05,23,04,36,6.90
2009,05,23,04,37,6.90
2009,05,23,04,38,6.80
2009,05,23,04,39,6.80
2009,05,23,04,40,6.80
2009,05,23,04,41,6.80
2009,05,23,04,42,6.80
2009,05,23,04,43,6.80
2009,05,23,04,44,6.70
2009,05,23,04,45,6.70
2009,05,23,04,46,6.70
2009,05,23,04,47,6.70
2009,05,23,04,48,6.70
2009,05,23,04,49,6.70
2009,05,23,04,50,6.70
2009,05,23,04,51,6.70
2009,05,23,04,52,6.70
2009,05,23,04,53,6.70
2009,05,23,04,54,6.70
2009,05,23,04,55,6.60
2009,05,23,04,56,6.60
2009,05,23,04,57,6.60
2009,05,23,04,58,6.60
2009,05,23,04,59,6.60
2009,05,23,05,00,6.50
2009,05,23,05,01,6.50
2009,05,23,05,02,6.50
2009,05,23,05,03,6.50
2009,05,23,05,04,6.40
2009,05,23,05,05,6.40
2009,05,23,05,06,6.40
2009,05,23,05,07,6.40
2009,05,23,05,08,6.40
2009,05,23,05,09,6.40
2009,05,23,05,10,6.40
2009,05,23,05,11,6.40
2009,05,23,05,12,6.30
2009,05,23,05,13,6.30
2009,05,23,05,14,6.30
2009,05,23,05,15,6.30
2009,05,23,05,16,6.30
2009,05,23,05,17,6.20
2009,05,23,05,18,6.20
2009,05,23,05,19,6.20
2009,05,23,05,20,6.20
2009,05,23,05,21,6.20
2009,05,23,05,22,6.10
2009,05,23,05,23,6.10
2009,05,23,05,24,6.10
2009,05,23,05,25,6.10
2009,05,23,05,26,6.10
2009,05,23,05,27,6.10
2009,05,23,05,28,6.00
2009,05,23,05,29,6.00
2009,05,23,05,30,6.00
2009,05,23,05,31,6.00
2009,05,23,05,32,6.00
2009,05,23,05,33,6.00
2009,05,23,05,34,6.00
2009,05,23,05,35,5.90
2009,05,23,05,36,5.90
2009,05,23,05,37,5.90
2009,05,23,05,38,5.90
2009,05,23,05,39,5.90
2009,05,23,05,40,5.80
2009,05,23,05,41,5.80
2009,05,23,05,42,5.80
2009,05,23,05,43,5.80
2009,05,23,05,44,5.80
2009,05,23,05,45,5.80
2009,05,23,05,46,5.80
2009,05,23,05,47,5.80
2009,05,23,05,48,5.80
2009,05,23,05,49,5.80
2009,05,23,05,50,5.80
2009,05,23,05,51,5.80
2009,05,23,05,52,5.80
2009,05,23,05,53,5.80
2009,05,23,05,54,5.80
2009,05,23,05,55,5.80
2009,05,23,05,56,5.80
2009,05,23,05,57,5.90
2009,05,23,05,58,5.90
2009,05,23,05,59,5.90
2009,05,23,06,00,6.00
2009,05,23,06,01,6.00
2009,05,23,06,02,6.00
2009,05,23,06,03,6.10
2009,05,23,06,04,6.10
2009,05,23,06,05,6.10
2009,05,23,06,06,6.20
2009,05,23,06,07,6.20
2009,05,23,06,08,6.20
2009,05,23,06,09,6.20
2009,05,23,06,10,6.20
2009,05,23,06,11,6.20
2009,05,23,06,12,6.20
2009,05,23,06,13,6.20
2009,05,23,06,14,6.20
2009,05,23,06,15,6.20
2009,05,23,06,16,6.20
2009,05,23,06,17,6.30
2009,05,23,06,18,6.30
2009,05,23,06,19,6.30
2009,05,23,06,20,6.30
2009,05,23,06,21,6.30
2009,05,23,06,22,6.30
2009,05,23,06,23,6.40
2009,05,23,06,24,6.40
2009,05,23,06,25,6.40
2009,05,23,06,26,6.50
2009,05,23,06,27,6.60
2009,05,23,06,28,6.60
2009,05,23,06,29,6.70
2009,05,23,06,30,6.70
2009,05,23,06,31,6.80
2009,05,23,06,32,6.80
2009,05,23,06,33,6.80
2009,05,23,06,34,6.90
2009,05,23,06,35,6.90
2009,05,23,06,36,7.00
2009,05,23,06,37,7.00
2009,05,23,06,38,7.10
2009,05,23,06,39,7.10
2009,05,23,06,40,7.20
2009,05,23,06,41,7.20
2009,05,23,06,42,7.20
2009,05,23,06,43,7.30
2009,05,23,06,44,7.30
2009,05,23,06,45,7.30
2009,05,23,06,46,7.40
2009,05,23,06,47,7.40
2009,05,23,06,48,7.50
2009,05,23,06,49,7.50
2009,05,23,06,50,7.60
2009,05,23,06,51,7.70
2009,05,23,06,52,7.70
2009,05,23,06,53,7.80
2009,05,23,06,54,7.90
2009,05,23,06,55,8.00
2009,05,23,06,56,8.10
2009,05,23,06,57,8.20
2009,05,23,06,58,8.20
2009,05,23,06,59,8.30
2009,05,23,07,00,8.30
2009,05,23,07,01,8.40
2009,05,23,07,02,8.40
2009,05,23,07,03,8.50
2009,05,23,07,04,8.50
2009,05,23,07,05,8.60
2009,05,23,07,06,8.60
2009,05,23,07,07,8.60
2009,05,23,07,08,8.70
2009,05,23,07,09,8.70
2009,05,23,07,10,8.80
2009,05,23,07,11,8.90
2009,05,23,07,12,8.90
2009,05,23,07,13,9.00
2009,05,23,07,14,9.10
2009,05,23,07,15,9.10
2009,05,23,07,16,9.20
2009,05,23,07,17,9.20
2009,05,23,07,18,9.30
2009,05,23,07,19,9.40
2009,05,23,07,20,9.40
2009,05,23,07,21,9.50
2009,05,23,07,22,9.60
2009,05,23,07,23,9.60
2009,05,23,07,24,9.70
2009,05,23,07,25,9.70
2009,05,23,07,26,9.80
2009,05,23,07,27,9.90
2009,05,23,07,28,10.00
2009,05,23,07,29,10.00
2009,05,23,07,30,10.10
2009,05,23,07,31,10.10
2009,05,23,07,32,10.20
2009,05,23,07,33,10.20
2009,05,23,07,34,10.20
2009,05,23,07,35,10.20
2009,05,23,07,36,10.20
2009,05,23,07,37,10.30
2009,05,23,07,38,10.30
2009,05,23,07,39,10.40
2009,05,23,07,40,10.40
2009,05,23,07,41,10.50
2009,05,23,07,42,10.60
2009,05,23,07,43,10.60
2009,05,23,07,44,10.70
2009,05,23,07,45,10.70
2009,05,23,07,46,10.80
2009,05,23,07,47,10.90
2009,05,23,07,48,10.90
2009,05,23,07,49,11.00
2009,05,23,07,50,11.10
2009,05,23,07,51,11.10
2009,05,23,07,52,11.20
2009,05,23,07,53,11.30
2009,05,23,07,54,11.30
2009,05,23,07,55,11.40
2009,05,23,07,56,11.50
2009,05,23,07,57,11.60
2009,05,23,07,58,11.60
2009,05,23,07,59,11.70
2009,05,23,08,00,11.70
2009,05,23,08,01,11.80
2009,05,23,08,02,11.80
2009,05,23,08,03,11.80
2009,05,23,08,04,11.90
2009,05,23,08,05,11.90
2009,05,23,08,06,11.90
2009,05,23,08,07,12.00
2009,05,23,08,08,12.00
2009,05,23,08,09,12.10
2009,05,23,08,10,12.10
2009,05,23,08,11,12.10
2009,05,23,08,12,12.10
2009,05,23,08,13,12.10
2009,05,23,08,14,12.20
2009,05,23,08,15,12.20
2009,05,23,08,16,12.20
2009,05,23,08,17,12.20
2009,05,23,08,18,12.30
2009,05,23,08,19,12.30
2009,05,23,08,20,12.30
2009,05,23,08,21,12.40
2009,05,23,08,22,12.40
2009,05,23,08,23,12.40
2009,05,23,08,24,12.50
2009,05,23,08,25,12.50
2009,05,23,08,26,12.50
2009,05,23,08,27,12.60
2009,05,23,08,28,12.60
2009,05,23,08,29,12.60
2009,05,23,08,30,12.60
2009,05,23,08,31,12.70
2009,05,23,08,32,12.70
2009,05,23,08,33,12.70
2009,05,23,08,34,12.80
2009,05,23,08,35,12.80
2009,05,23,08,36,12.90
2009,05,23,08,37,13.00
2009,05,23,08,38,13.10
2009,05,23,08,39,13.20
2009,05,23,08,40,13.30
2009,05,23,08,41,13.40
2009,05,23,08,42,13.40
2009,05,23,08,43,13.50
2009,05,23,08,44,13.60
2009,05,23,08,45,13.70
2009,05,23,08,46,13.70
2009,05,23,08,47,13.80
2009,05,23,08,48,13.80
2009,05,23,08,49,13.90
2009,05,23,08,50,13.90
2009,05,23,08,51,13.90
2009,05,23,08,52,13.90
2009,05,23,08,53,14.00
2009,05,23,08,54,14.10
2009,05,23,08,55,14.20
2009,05,23,08,56,14.30
2009,05,23,08,57,14.40
2009,05,23,08,58,14.60
2009,05,23,08,59,14.70
2009,05,23,09,00,14.80
2009,05,23,09,01,14.90
2009,05,23,09,02,15.00
2009,05,23,09,03,15.00
2009,05,23,09,04,15.00
2009,05,23,09,05,15.00
2009,05,23,09,06,15.00
2009,05,23,09,07,15.10
2009,05,23,09,08,15.20
2009,05,23,09,09,15.10
2009,05,23,09,10,15.20
2009,05,23,09,11,15.20
2009,05,23,09,12,15.20
2009,05,23,09,13,15.20
2009,05,23,09,14,15.30
2009,05,23,09,15,15.30
2009,05,23,09,16,15.30
2009,05,23,09,17,15.30
2009,05,23,09,18,15.30
2009,05,23,09,19,15.20
2009,05,23,09,20,15.00
2009,05,23,09,21,15.00
2009,05,23,09,22,15.00
2009,05,23,09,23,15.00
2009,05,23,09,24,15.00
2009,05,23,09,25,15.00
2009,05,23,09,26,15.00
2009,05,23,09,27,15.10
2009,05,23,09,28,15.20
2009,05,23,09,29,15.30
2009,05,23,09,30,15.30
2009,05,23,09,31,15.30
2009,05,23,09,32,15.30
2009,05,23,09,33,15.30
2009,05,23,09,34,15.40
2009,05,23,09,35,15.40
2009,05,23,09,36,15.50
2009,05,23,09,37,15.60
2009,05,23,09,38,15.60
2009,05,23,09,39,15.70
2009,05,23,09,40,15.80
2009,05,23,09,41,15.90
2009,05,23,09,42,15.90
2009,05,23,09,43,16.00
2009,05,23,09,44,16.00
2009,05,23,09,45,16.00
2009,05,23,09,46,16.00
2009,05,23,09,47,16.00
2009,05,23,09,48,15.90
2009,05,23,09,49,16.00
2009,05,23,09,50,16.10
2009,05,23,09,51,16.20
2009,05,23,09,52,16.20
2009,05,23,09,53,16.20
2009,05,23,09,54,16.20
2009,05,23,09,55,16.20
2009,05,23,09,56,16.20
2009,05,23,09,57,16.20
2009,05,23,09,58,16.20
2009,05,23,09,59,16.20
2009,05,23,10,00,16.20
2009,05,23,10,01,16.30
2009,05,23,10,02,16.40
2009,05,23,10,03,16.50
2009,05,23,10,04,16.60
2009,05,23,10,05,16.70
2009,05,23,10,06,16.70
2009,05,23,10,07,16.70
2009,05,23,10,08,16.70
2009,05,23,10,09,16.70
2009,05,23,10,10,16.70
2009,05,23,10,11,16.70
2009,05,23,10,12,16.80
2009,05,23,10,13,16.80
2009,05,23,10,14,16.80
2009,05,23,10,15,16.80
2009,05,23,10,16,16.70
2009,05,23,10,17,16.70
2009,05,23,10,18,16.70
2009,05,23,10,19,16.80
2009,05,23,10,20,16.80
2009,05,23,10,21,16.80
2009,05,23,10,22,16.80
2009,05,23,10,23,16.80
2009,05,23,10,24,16.80
2009,05,23,10,25,16.90
2009,05,23,10,26,16.90
2009,05,23,10,27,17.00
2009,05,23,10,28,17.20
2009,05,23,10,29,17.30
2009,05,23,10,30,17.40
2009,05,23,10,31,17.50
2009,05,23,10,32,17.50
2009,05,23,10,33,17.40
2009,05,23,10,34,17.30
2009,05,23,10,35,17.30
2009,05,23,10,36,17.30
2009,05,23,10,37,17.20
2009,05,23,10,38,17.10
2009,05,23,10,39,17.10
2009,05,23,10,40,17.10
2009,05,23,10,41,17.10
2009,05,23,10,42,17.10
2009,05,23,10,43,17.10
2009,05,23,10,44,17.10
2009,05,23,10,45,17.20
2009,05,23,10,46,17.20
2009,05,23,10,47,17.30
2009,05,23,10,48,17.30
2009,05,23,10,49,17.40
2009,05,23,10,50,17.40
2009,05,23,10,51,17.40
2009,05,23,10,52,17.30
2009,05,23,10,53,17.30
2009,05,23,10,54,17.20
2009,05,23,10,55,17.20
2009,05,23,10,56,17.20
2009,05,23,10,57,17.20
2009,05,23,10,58,17.30
2009,05,23,10,59,17.40
2009,05,23,11,00,17.50
2009,05,23,11,01,17.60
2009,05,23,11,02,17.70
2009,05,23,11,03,17.70
2009,05,23,11,04,17.70
2009,05,23,11,05,17.80
2009,05,23,11,06,17.90
2009,05,23,11,07,17.90
2009,05,23,11,08,17.90
2009,05,23,11,09,17.80
2009,05,23,11,10,17.80
2009,05,23,11,11,17.80
2009,05,23,11,12,17.80
2009,05,23,11,13,17.90
2009,05,23,11,14,17.90
2009,05,23,11,15,18.00
2009,05,23,11,16,18.10
2009,05,23,11,17,18.30
2009,05,23,11,18,18.40
2009,05,23,11,19,18.50
2009,05,23,11,20,18.60
2009,05,23,11,21,18.70
2009,05,23,11,22,18.70
2009,05,23,11,23,18.60
2009,05,23,11,24,18.60
2009,05,23,11,25,18.50
2009,05,23,11,26,18.40
2009,05,23,11,27,18.30
2009,05,23,11,28,18.20
2009,05,23,11,29,18.10
2009,05,23,11,30,18.10
2009,05,23,11,31,18.10
2009,05,23,11,32,18.20
2009,05,23,11,33,18.20
2009,05,23,11,34,18.30
2009,05,23,11,35,18.30
2009,05,23,11,36,18.30
2009,05,23,11,37,18.30
2009,05,23,11,38,18.20
2009,05,23,11,39,18.20
2009,05,23,11,40,18.20
2009,05,23,11,41,18.20
2009,05,23,11,42,18.30
2009,05,23,11,43,18.30
2009,05,23,11,44,18.40
2009,05,23,11,45,18.40
2009,05,23,11,46,18.30
2009,05,23,11,47,18.30
2009,05,23,11,48,18.20
2009,05,23,11,49,18.10
2009,05,23,11,50,18.00
2009,05,23,11,51,18.00
2009,05,23,11,52,18.10
2009,05,23,11,53,18.10
2009,05,23,11,54,18.20
2009,05,23,11,55,18.20
2009,05,23,11,56,18.20
2009,05,23,11,57,18.20
2009,05,23,11,58,18.30
2009,05,23,11,59,18.30
2009,05,23,12,00,18.30
2009,05,23,12,01,18.30
2009,05,23,12,02,18.20
2009,05,23,12,03,18.20
2009,05,23,12,04,18.10
2009,05,23,12,05,18.00
2009,05,23,12,06,18.00
2009,05,23,12,07,18.00
2009,05,23,12,08,17.90
2009,05,23,12,09,17.80
2009,05,23,12,10,17.80
2009,05,23,12,11,17.70
2009,05,23,12,12,17.80
2009,05,23,12,13,17.80
2009,05,23,12,14,17.80
2009,05,23,12,15,17.80
2009,05,23,12,16,17.80
2009,05,23,12,17,17.90
2009,05,23,12,18,17.80
2009,05,23,12,19,17.80
2009,05,23,12,20,17.90
2009,05,23,12,21,17.90
2009,05,23,12,22,18.00
2009,05,23,12,23,18.00
2009,05,23,12,24,18.10
2009,05,23,12,25,18.20
2009,05,23,12,26,18.30
2009,05,23,12,27,18.30
2009,05,23,12,28,18.30
2009,05,23,12,29,18.20
2009,05,23,12,30,18.20
2009,05,23,12,31,18.10
2009,05,23,12,32,18.10
2009,05,23,12,33,18.00
2009,05,23,12,34,18.00
2009,05,23,12,35,18.00
2009,05,23,12,36,18.10
2009,05,23,12,37,18.10
2009,05,23,12,38,18.20
2009,05,23,12,39,18.20
2009,05,23,12,40,18.20
2009,05,23,12,41,18.20
2009,05,23,12,42,18.20
2009,05,23,12,43,18.20
2009,05,23,12,44,18.10
2009,05,23,12,45,18.10
2009,05,23,12,46,18.10
2009,05,23,12,47,18.10
2009,05,23,12,48,18.00
2009,05,23,12,49,17.90
2009,05,23,12,50,18.00
2009,05,23,12,51,18.00
2009,05,23,12,52,18.10
2009,05,23,12,53,18.20
2009,05,23,12,54,18.20
2009,05,23,12,55,18.30
2009,05,23,12,56,18.30
2009,05,23,12,57,18.30
2009,05,23,12,58,18.40
2009,05,23,12,59,18.50
2009,05,23,13,00,18.60
2009,05,23,13,01,18.60
2009,05,23,13,02,18.60
2009,05,23,13,03,18.70
2009,05,23,13,04,18.80
2009,05,23,13,05,18.80
2009,05,23,13,06,18.90
2009,05,23,13,07,18.80
2009,05,23,13,08,18.80
2009,05,23,13,09,18.90
2009,05,23,13,10,19.00
2009,05,23,13,11,19.10
2009,05,23,13,12,19.20
2009,05,23,13,13,19.30
2009,05,23,13,14,19.30
2009,05,23,13,15,19.30
2009,05,23,13,16,19.30
2009,05,23,13,17,19.20
2009,05,23,13,18,19.10
2009,05,23,13,19,19.10
2009,05,23,13,20,19.10
2009,05,23,13,21,19.20
2009,05,23,13,22,19.30
2009,05,23,13,23,19.40
2009,05,23,13,24,19.40
2009,05,23,13,25,19.40
2009,05,23,13,26,19.40
2009,05,23,13,27,19.40
2009,05,23,13,28,19.40
2009,05,23,13,29,19.50
2009,05,23,13,30,19.50
2009,05,23,13,31,19.50
2009,05,23,13,32,19.60
2009,05,23,13,33,19.50
2009,05,23,13,34,19.50
2009,05,23,13,35,19.40
2009,05,23,13,36,19.30
2009,05,23,13,37,19.30
2009,05,23,13,38,19.30
2009,05,23,13,39,19.30
2009,05,23,13,40,19.30
2009,05,23,13,41,19.20
2009,05,23,13,42,19.30
2009,05,23,13,43,19.30
2009,05,23,13,44,19.50
2009,05,23,13,45,19.60
2009,05,23,13,46,19.60
2009,05,23,13,47,19.70
2009,05,23,13,48,19.70
2009,05,23,13,49,19.70
2009,05,23,13,50,19.70
2009,05,23,13,51,19.80
2009,05,23,13,52,19.80
2009,05,23,13,53,19.80
2009,05,23,13,54,19.80
2009,05,23,13,55,19.80
2009,05,23,13,56,19.80
2009,05,23,13,57,19.90
2009,05,23,13,58,19.90
2009,05,23,13,59,19.90
2009,05,23,14,00,19.90
2009,05,23,14,01,19.90
2009,05,23,14,02,20.10
2009,05,23,14,03,20.30
2009,05,23,14,04,20.40
2009,05,23,14,05,20.40
2009,05,23,14,06,20.50
2009,05,23,14,07,20.60
2009,05,23,14,08,20.60
2009,05,23,14,09,20.60
2009,05,23,14,10,20.70
2009,05,23,14,11,20.70
2009,05,23,14,12,20.70
2009,05,23,14,13,20.60
2009,05,23,14,14,20.50
2009,05,23,14,15,20.40
2009,05,23,14,16,20.40
2009,05,23,14,17,20.50
2009,05,23,14,18,20.50
2009,05,23,14,19,20.60
2009,05,23,14,20,20.60
2009,05,23,14,21,20.60
2009,05,23,14,22,20.50
2009,05,23,14,23,20.40
2009,05,23,14,24,20.40
2009,05,23,14,25,20.40
2009,05,23,14,26,20.50
2009,05,23,14,27,20.50
2009,05,23,14,28,20.50
2009,05,23,14,29,20.60
2009,05,23,14,30,20.60
2009,05,23,14,31,20.60
2009,05,23,14,32,20.60
2009,05,23,14,33,20.60
2009,05,23,14,34,20.60
2009,05,23,14,35,20.70
2009,05,23,14,36,20.70
2009,05,23,14,37,20.70
2009,05,23,14,38,20.60
2009,05,23,14,39,20.60
2009,05,23,14,40,20.60
2009,05,23,14,41,20.60
2009,05,23,14,42,20.70
2009,05,23,14,43,20.80
2009,05,23,14,44,20.90
2009,05,23,14,45,20.90
2009,05,23,14,46,21.00
2009,05,23,14,47,20.90
2009,05,23,14,48,20.90
2009,05,23,14,49,20.80
2009,05,23,14,50,20.70
2009,05,23,14,51,20.80
2009,05,23,14,52,20.80
2009,05,23,14,53,20.80
2009,05,23,14,54,20.80
2009,05,23,14,55,20.90
2009,05,23,14,56,20.90
2009,05,23,14,57,20.90
2009,05,23,14,58,21.00
2009,05,23,14,59,21.10
2009,05,23,15,00,21.10
2009,05,23,15,01,21.10
2009,05,23,15,02,21.10
2009,05,23,15,03,21.20
2009,05,23,15,04,21.20
2009,05,23,15,05,21.20
2009,05,23,15,06,21.30
2009,05,23,15,07,21.40
2009,05,23,15,08,21.50
2009,05,23,15,09,21.50
2009,05,23,15,10,21.50
2009,05,23,15,11,21.40
2009,05,23,15,12,21.30
2009,05,23,15,13,21.20
2009,05,23,15,14,21.30
2009,05,23,15,15,21.30
2009,05,23,15,16,21.30
2009,05,23,15,17,21.40
2009,05,23,15,18,21.50
2009,05,23,15,19,21.50
2009,05,23,15,20,21.50
2009,05,23,15,21,21.50
2009,05,23,15,22,21.40
2009,05,23,15,23,21.40
2009,05,23,15,24,21.40
2009,05,23,15,25,21.40
2009,05,23,15,26,21.40
2009,05,23,15,27,21.30
2009,05,23,15,28,21.30
2009,05,23,15,29,21.30
2009,05,23,15,30,21.30
2009,05,23,15,31,21.30
2009,05,23,15,32,21.50
2009,05,23,15,33,21.50
2009,05,23,15,34,21.60
2009,05,23,15,35,21.60
2009,05,23,15,36,21.60
2009,05,23,15,37,21.50
2009,05,23,15,38,21.50
2009,05,23,15,39,21.40
2009,05,23,15,40,21.40
2009,05,23,15,41,21.30
2009,05,23,15,42,21.30
2009,05,23,15,43,21.30
2009,05,23,15,44,21.30
2009,05,23,15,45,21.30
2009,05,23,15,46,21.30
2009,05,23,15,47,21.40
2009,05,23,15,48,21.40
2009,05,23,15,49,21.50
2009,05,23,15,50,21.50
2009,05,23,15,51,21.50
2009,05,23,15,52,21.60
2009,05,23,15,53,21.60
2009,05,23,15,54,21.60
2009,05,23,15,55,21.50
2009,05,23,15,56,21.50
2009,05,23,15,57,21.40
2009,05,23,15,58,21.40
2009,05,23,15,59,21.50
2009,05,23,16,00,21.50
2009,05,23,16,01,21.60
2009,05,23,16,02,21.50
2009,05,23,16,03,21.50
2009,05,23,16,04,21.40
2009,05,23,16,05,21.40
2009,05,23,16,06,21.40
2009,05,23,16,07,21.30
2009,05,23,16,08,21.30
2009,05,23,16,09,21.30
2009,05,23,16,10,21.30
2009,05,23,16,11,21.40
2009,05,23,16,12,21.50
2009,05,23,16,13,21.50
2009,05,23,16,14,21.50
2009,05,23,16,15,21.40
2009,05,23,16,16,21.40
2009,05,23,16,17,21.30
2009,05,23,16,18,21.30
2009,05,23,16,19,21.40
2009,05,23,16,20,21.40
2009,05,23,16,21,21.50
2009,05,23,16,22,21.50
2009,05,23,16,23,21.60
2009,05,23,16,24,21.60
2009,05,23,16,25,21.60
2009,05,23,16,26,21.60
2009,05,23,16,27,21.60
2009,05,23,16,28,21.60
2009,05,23,16,29,21.70
2009,05,23,16,30,21.70
2009,05,23,16,31,21.70
2009,05,23,16,32,21.80
2009,05,23,16,33,21.80
2009,05,23,16,34,21.80
2009,05,23,16,35,21.80
2009,05,23,16,36,21.70
2009,05,23,16,37,21.70
2009,05,23,16,38,21.70
2009,05,23,16,39,21.70
2009,05,23,16,40,21.50
2009,05,23,16,41,21.40
2009,05,23,16,42,21.30
2009,05,23,16,43,21.20
2009,05,23,16,44,21.20
2009,05,23,16,45,21.20
2009,05,23,16,46,21.20
2009,05,23,16,47,21.20
2009,05,23,16,48,21.30
2009,05,23,16,49,21.30
2009,05,23,16,50,21.40
2009,05,23,16,51,21.40
2009,05,23,16,52,21.40
2009,05,23,16,53,21.50
2009,05,23,16,54,21.50
2009,05,23,16,55,21.50
2009,05,23,16,56,21.50
2009,05,23,16,57,21.60
2009,05,23,16,58,21.60
2009,05,23,16,59,21.60
2009,05,23,17,00,21.60
2009,05,23,17,01,21.60
2009,05,23,17,02,21.60
2009,05,23,17,03,21.70
2009,05,23,17,04,21.70
2009,05,23,17,05,21.80
2009,05,23,17,06,21.80
2009,05,23,17,07,21.80
2009,05,23,17,08,21.80
2009,05,23,17,09,21.80
2009,05,23,17,10,21.80
2009,05,23,17,11,21.70
2009,05,23,17,12,21.70
2009,05,23,17,13,21.70
2009,05,23,17,14,21.70
2009,05,23,17,15,21.80
2009,05,23,17,16,21.80
2009,05,23,17,17,21.80
2009,05,23,17,18,21.70
2009,05,23,17,19,21.70
2009,05,23,17,20,21.70
2009,05,23,17,21,21.80
2009,05,23,17,22,21.80
2009,05,23,17,23,21.80
2009,05,23,17,24,21.80
2009,05,23,17,25,21.80
2009,05,23,17,26,21.70
2009,05,23,17,27,21.70
2009,05,23,17,28,21.70
2009,05,23,17,29,21.60
2009,05,23,17,30,21.60
2009,05,23,17,31,21.60
2009,05,23,17,32,21.50
2009,05,23,17,33,21.40
2009,05,23,17,34,21.40